Regional Weather Roundup
Issued by NWS

Home | Current Version | Previous Version | Text Only | Print | Product List | Glossary Off
Versions: 1 2 3 4 5 6 7 8 9 10 11 12 13 14 15 16 17 18 19 20 21 22 23 24 25 26 27 28 29 30 31 32 33 34 35 36 37 38 39 40 41 42 43 44 45 46 47 48 49 50

278
ASUS43 KLOT 250908
RWRIL

ILLINOIS REGIONAL WEATHER ROUNDUP
NATIONAL WEATHER SERVICE CHICAGO/ROMEOVILLE IL
300 AM CST SUN FEB 25 2018

NOTE: "FAIR" INDICATES FEW OR NO CLOUDS BELOW 12,000 FEET WITH NO
SIGNIFICANT WEATHER AND/OR OBSTRUCTIONS TO VISIBILITY.

* THESE STATIONS ARE NOT UNDER NWS QUALITY CONTROL. THEY ALSO MAY NOT
  REPORT WEATHER SUCH AS PRECIPITATION OR FOG.

ILZ001-002-007-009-015-016-024-251000-
NORTHWEST ILLINOIS

CITY           SKY/WX    TMP DP  RH WIND       PRES   REMARKS
MOLINE         CLOUDY    34  28  79 W16G26    29.74R WCI  24
STERLING*      CLOUDY    33  28  81 W22G32    29.70R WCI  21
SAVANNA*       CLOUDY    32  26  77 W15G25    29.70R WCI  22
$$

ILZ003-004-008-010-011-017-018-251000-
NORTH CENTRAL ILLINOIS

CITY           SKY/WX    TMP DP  RH WIND       PRES   REMARKS
ROCKFORD       CLOUDY    32  26  78 W23G39    29.65R WCI  19
FREEPORT*      CLOUDY    31  25  79 W25G36    29.65R WCI  17
ROCHELLE*      CLOUDY    32  29  86 W35       29.67R WCI  17
DE KALB*       CLOUDY    33  30  88 W23G39    29.65R WCI  20
PERU*          CLOUDY    33  28  83 W21G36    29.72R WCI  21
$$

ILZ005-006-012>014-019>023-251000-
NORTHEAST ILLINOIS

CITY           SKY/WX    TMP DP  RH WIND       PRES   REMARKS
CHICAGO-OHARE  CLOUDY    36  28  73 W20G39    29.62R WCI  25
CHICAGO-MIDWAY CLOUDY    37  29  72 W25G48    29.65R WCI  25
AURORA         CLOUDY    34  28  79 W32G44    29.66R WCI  20
LANSING*       CLOUDY    37  32  85 W22G44    29.67R WCI  25
JOLIET*        CLOUDY    37  32  84 W22G30    29.71R WCI  25
WAUKEGAN       CLOUDY    35  29  78 SW14G28   29.55R WCI  26
DUPAGE AIRPORT CLOUDY    34  30  85 W28G40    29.64R WCI  21
KANKAKEE*      CLOUDY    36  30  79 W30G41    29.75R WCI  23
WHEELING       CLOUDY    37  30  75 W23G29    29.61R WCI  26
MORRIS*        CLOUDY    35  29  80 W28G35    29.71R WCI  22
ROMEOVILLE*    CLOUDY    35  30  83 W28G37    29.68R WCI  22
NORTHERLY ISL    N/A     37  30  76 SW17        N/A  WCI  27
$$

LMZ740>746-251000-
SOUTHERN LAKE MICHIGAN

STATION/POSITION SKY/WX   TEMP    WIND        PRES    VSBY  WAVE
                          AIR SEA DIR/SP/G                  HT/PER
                          (F)     (DEG/KT/KT) (MB)    (MI)  (FT/S)
HARRISON CRIB              38     260/ 31/ 37   N/A
BURNHAM HARBOR             37     260/ 22/ 25   N/A
CALUMET HARBOR             37     240/ 17/ 28 1003.2R
BURNS HARBOR               39     260/ 25/ 35 1004.1R
MICHIGAN CITY              38     240/ 42/ 48   N/A
$$

ILZ025>027-034>036-040-047-049-050-058-095>099-251000-
WEST-CENTRAL ILLINOIS

CITY           SKY/WX    TMP DP  RH WIND       PRES   REMARKS
QUINCY         PTCLDY    33  28  81 W13       29.86S WCI  24
GALESBURG*     CLOUDY    33  30  91 SW17G24   29.80R WCI  21
MACOMB*        CLOUDY   N/A N/A N/A W21G28    29.84R
JACKSONVILLE*  CLEAR     33  28  83 W13G21    29.88R WCI  24
PITTSFIELD*    MOCLDY    34  30  85 W14G22    29.89S WCI  25
$$

ILZ028>032-037-038-041>044-048-051>054-059>061-251000-
CENTRAL ILLINOIS

CITY           SKY/WX    TMP DP  RH WIND       PRES   REMARKS
PONTIAC        CLOUDY    35  33  92 W29G36    29.76R WCI  22
BLOOMINGTON    CLOUDY    34  30  85 W23       29.78R WCI  22
DECATUR        FAIR      35  30  82 W13G23    29.84R WCI  26
PEORIA         FAIR      34  28  79 W14G26    29.80R WCI  25
LACON*         CLOUDY    34  28  78 W17G30    29.76R WCI  24
LINCOLN*       MOCLDY    35  31  85 W7        29.84R WCI  29
SPRINGFIELD    FAIR      34  29  82 W18       29.87R WCI  23
TAYLORVILLE    FAIR      34  30  85 W13       29.88R WCI  25
$$

ILZ033-039-045-046-055>057-062-063-251000-
EAST-CENTRAL ILLINOIS

CITY           SKY/WX    TMP DP  RH WIND       PRES   REMARKS
CHAMPAIGN      MOCLDY    36  31  82 W26G39    29.81R WCI  24
DANVILLE*      CLOUDY    38  34  83 W28G39    29.77R WCI  27
RANTOUL*       FAIR      38  33  82 W25G33    29.79R WCI  26
MATTOON        CLOUDY    38  33  82 W16G28    29.86R WCI  29
PARIS*         CLOUDY    40  34  81 W26G36    29.85R
$$

ILZ079-100>102-251000-
SOUTHWEST ILLINOIS

CITY           SKY/WX    TMP DP  RH WIND       PRES   REMARKS
ALTON          CLEAR     35  33  92 W14G22    29.93R WCI  26
BELLEVILLE     CLOUDY    39  31  73 W12       29.93R WCI  32
CAHOKIA*       CLEAR     39  30  70 W13G20    29.94R WCI  31
SPARTA*        CLOUDY    40  35  82 W6        29.96R
$$

ILZ064>066-069>071-074>076-080>082-084>086-088>090-092>094-251000-
SOUTH-CENTRAL ILLINOIS

CITY           SKY/WX    TMP DP  RH WIND       PRES   REMARKS
CARBONDALE     FAIR      44  35  70 W12G25    29.95R
CAIRO*         FAIR      46  37  71 W12G25    29.97R
EFFINGHAM*     FAIR      39  34  81 SW20G26   29.91R WCI  30
MARION         FAIR      44  34  68 W9G23     29.96R
MT. VERNON     CLOUDY    43  36  76 W12G18    29.92R
CENTRALIA*     CLOUDY    41  36  80 W13       29.92R
SALEM*         FAIR      42  33  72 W20G26    29.92R
METROPOLIS*    FAIR      48  39  71 W14       29.96R
$$

ILZ067-068-072-073-078-083-087-091-251000-
SOUTHEAST ILLINOIS

CITY           SKY/WX    TMP DP  RH WIND       PRES   REMARKS
LAWRENCEVILLE  FAIR      46  37  71 W21G29    29.88R
FLORA*         FAIR      42  34  72 W23G30    29.92R
FAIRFIELD*     FAIR      44  36  73 MISG      29.91R
HARRISBURG*    FAIR      45  38  76 W21G31    29.94R
ROBINSON*      CLOUDY    44  37  74 W21G26    29.88R
CARMI*         MOCLDY    46  39  76 W24G32    29.91R
$$

ABBREVIATIONS USED IN REMARKS
   TC - TEMPERATURE IN CELSIUS
  WCI - WIND CHILL INDEX
   HX - HEAT INDEX
  VSB - VISIBILITY
$$





USA.gov is the U.S. government's official web portal to all federal, state and local government web resources and services.